Location: Brasstown Bald
(34.8693°N, 83.8103°W)
Time: 10:56:07
(UTC-04:00)

Amateur Radio Satellites - All Passes

Search period start: 06 May 2016 10:26
Search period end: 07 May 2016 10:26
Location: Brasstown Bald, 34.8693°N, 83.8103°W

Satellite Date Start Highest point End Downlink Frequencies (MHz)
Time Altitude Azimuth
ANTELSAT 06 May 10:30:17 10:34:09 27° 71° (ENE) 10:37:57 437.575/2403.000
DELFI C3 06 May 10:45:44 10:49:13 28° 97° (E) 10:52:40 145.870
PHONESAT 2.4 06 May 10:48:16 10:51:07 31° 352° (N) 10:53:58 2401.200-2431.200
GONETS M04 06 May 10:49:48 10:55:23 18° 67° (ENE) 11:00:55
HUMSAT D 06 May 10:53:40 10:55:54 14° 94° (E) 10:58:07 437.325/437.525
Oscar 11 06 May 10:56:58 11:01:18 89° 284° (WNW) 11:05:37 145.826/435.025
CUTE 1.7 + AOD 2 06 May 10:57:25 10:59:37 14° 293° (WNW) 11:01:49 437.475
AO-85 06 May 11:10:48 11:13:46 15° 106° (ESE) 11:16:44 145.980
DUCHIFAT 1 06 May 11:11:49 11:13:15 11° 66° (ENE) 11:14:40 145.980
COMPASS 1 06 May 11:13:12 11:15:54 17° 291° (WNW) 11:18:38 437.405
FUNcube-1 06 May 11:14:23 11:18:31 67° 284° (WNW) 11:22:36 145.935
QB50P2 06 May 11:16:29 11:19:04 16° 68° (ENE) 11:21:39 145.880/145.840
SEEDS 06 May 11:18:27 11:19:40 11° 294° (WNW) 11:20:54 437.485
POLYITAN 1 06 May 11:18:38 11:21:17 16° 68° (ENE) 11:23:56 437.675
POPSAT HIP 1 06 May 11:20:08 11:22:47 16° 68° (ENE) 11:25:27 437.405
AIST 1 06 May 11:20:36 11:23:57 21° 76° (ENE) 11:27:18
QB50P1 06 May 11:22:44 11:25:36 18° 68° (ENE) 11:28:28 145.935-145.965
UNISAT 6 06 May 11:23:51 11:28:29 75° 258° (WSW) 11:33:04 437.425
BUGSAT 1 06 May 11:37:44 11:38:37 11° 65° (ENE) 11:39:29 437.445
UWE-3 06 May 11:37:56 11:41:10 22° 290° (WNW) 11:44:20 435.000/436.395/437.385
TIGRISAT 06 May 11:40:08 11:44:40 51° 260° (W) 11:49:07 435.000
AAUSAT CUBESAT 2 06 May 11:42:01 11:42:40 10° 294° (WNW) 11:43:18 437.432
HO-68 06 May 11:52:38 11:55:59 14° 303° (WNW) 11:59:20 435.675
NANOSAT C BR1 06 May 11:54:01 11:57:59 39° 73° (ENE) 12:01:58 145.865
ZACube-1 06 May 11:59:53 12:02:46 18° 291° (WNW) 12:05:39 437.345
Cosmos 2499 06 May 12:01:17 12:08:06 30° 75° (ENE) 12:15:16 435.465 / 435.565
ESTCUBE 1 06 May 12:01:49 12:04:49 17° 94° (E) 12:07:49 437.505/2401.250
ANTELSAT 06 May 12:06:57 12:10:45 25° 264° (W) 12:14:31 437.575/2403.000
DX 1 06 May 12:14:33 12:16:45 14° 93° (E) 12:18:56 434.975-435.025
UKube-1 06 May 12:15:08 12:15:42 10° 92° (E) 12:16:17 .
DELFI C3 06 May 12:21:11 12:23:51 17° 291° (WNW) 12:26:31 145.870
PHONESAT 2.4 06 May 12:25:33 12:28:24 31° 8° (N) 12:31:16 2401.200-2431.200
HUMSAT D 06 May 12:27:54 12:31:37 35° 287° (WNW) 12:35:19 437.325/437.525
VELOX 1 06 May 12:30:13 12:33:53 25° 96° (E) 12:37:31 145.980
JAS-2 06 May 12:36:44 12:41:01 20° 61° (ENE) 12:45:39 435.910
50 SAT 06 May 12:43:44 12:47:13 40° 99° (E) 12:50:42 437.505
DUCHIFAT 1 06 May 12:44:17 12:48:26 52° 260° (W) 12:52:37 145.980
GONETS M04 06 May 12:44:25 12:53:10 81° 266° (W) 13:01:49
ISS 06 May 12:46:01 12:48:18 18° 31° (NNE) 12:50:36 145.825
AO-85 06 May 12:48:18 12:53:43 67° 301° (WNW) 12:59:08 145.980
QB50P2 06 May 12:50:34 12:54:33 37° 262° (W) 12:58:32 145.880/145.840
POLYITAN 1 06 May 12:52:48 12:56:45 36° 261° (W) 13:00:45 437.675
POPSAT HIP 1 06 May 12:54:18 12:58:15 36° 262° (W) 13:02:13 437.405
QB50P1 06 May 12:57:14 13:01:06 33° 262° (W) 13:04:59 145.935-145.965
AIST 1 06 May 12:57:50 13:01:29 26° 270° (W) 13:05:07
AISAT 06 May 13:02:17 13:06:44 63° 101° (E) 13:11:08 437.250
BUGSAT 1 06 May 13:09:17 13:13:26 57° 259° (W) 13:17:39 437.445
CUBEBUG 1 06 May 13:27:48 13:32:14 67° 284° (WNW) 13:36:35 437.445
Oscar 19 06 May 13:29:43 13:34:06 29° 69° (ENE) 13:38:31 437.125/150
NANOSAT C BR1 06 May 13:31:31 13:33:51 14° 267° (W) 13:36:11 145.865
ESTCUBE 1 06 May 13:37:32 13:41:42 36° 288° (WNW) 13:45:51 437.505/2401.250
UKube-1 06 May 13:47:47 13:52:02 55° 286° (WNW) 13:56:15 .
DX 1 06 May 13:48:57 13:53:07 43° 287° (WNW) 13:57:14 434.975-435.025
Cosmos 2499 06 May 13:53:44 14:01:19 50° 270° (W) 14:09:26 435.465 / 435.565
Gurwin Techsat 1B 06 May 13:57:07 14:01:04 22° 66° (ENE) 14:05:00 435.225
O/OREOS (USA 219) 06 May 14:02:05 14:05:41 23° 102° (ESE) 14:09:18 437.305
PHONESAT 2.4 06 May 14:02:18 14:05:27 82° 203° (SSW) 14:08:36 2401.200-2431.200
VELOX 1 06 May 14:06:36 14:10:14 25° 290° (WNW) 14:13:52 145.980
SPROUT 06 May 14:10:07 14:14:19 58° 285° (WNW) 14:18:30 437.525
JAS-2 06 May 14:19:23 14:25:16 62° 260° (W) 14:32:01 435.910
50 SAT 06 May 14:19:57 14:20:36 10° 293° (WNW) 14:21:15 437.505
ISS 06 May 14:21:47 14:24:55 45° 227° (SW) 14:28:02 145.825
TISAT 1 06 May 14:28:57 14:33:08 60° 101° (E) 14:37:15 437.305
AO-85 06 May 14:33:56 14:35:11 11° 318° (NW) 14:36:25 145.980
AISAT 06 May 14:41:44 14:42:37 11° 296° (WNW) 14:43:31 437.250
GONETS M04 06 May 14:45:31 14:48:27 12° 283° (WNW) 14:51:24
ITUPSAT 1 06 May 14:45:41 14:48:16 14° 93° (E) 14:50:51 437.325
SWISSCUBE 06 May 14:52:07 14:55:35 20° 95° (E) 14:59:02 437.505
ITAMSAT 1 06 May 14:57:00 15:01:33 32° 70° (ENE) 15:06:07 435.822/435.867
AO-7 06 May 15:00:28 15:06:36 24° 58° (ENE) 15:12:45 29.400- 29.500
Oscar 19 06 May 15:08:52 15:13:18 29° 263° (W) 15:17:47 437.125/150
PCSat 06 May 15:23:45 15:29:07 70° 114° (ESE) 15:34:32 145.827
BEESAT 06 May 15:24:00 15:28:29 40° 99° (E) 15:32:55 436.000
DANDE 06 May 15:26:56 15:28:35 14° 85° (E) 15:30:26 436.750
Gurwin Techsat 1B 06 May 15:35:42 15:40:41 41° 261° (W) 15:45:42 435.225
PHONESAT 2.4 06 May 15:40:29 15:41:56 13° 218° (SW) 15:43:23 2401.200-2431.200
O/OREOS (USA 219) 06 May 15:40:57 15:44:55 28° 296° (WNW) 15:48:53 437.305
CUSAT 1 06 May 15:46:36 15:50:07 74° 280° (W) 15:54:48 437.405
SO-50 06 May 16:01:44 16:06:22 56° 58° (ENE) 16:10:49 436.795
ITUPSAT 1 06 May 16:21:44 16:26:19 48° 287° (WNW) 16:30:54 437.325
KKS-1 06 May 16:22:48 16:25:58 19° 95° (E) 16:29:07 437.445
SWISSCUBE 06 May 16:29:06 16:33:25 35° 289° (WNW) 16:37:44 437.505
STARS 06 May 16:30:26 16:31:04 10° 92° (E) 16:31:42 437.465
ITAMSAT 1 06 May 16:36:46 16:41:00 25° 264° (W) 16:45:14 435.822/435.867
HORYU 2 06 May 16:44:34 16:48:05 23° 69° (ENE) 16:51:36 437.375
AO-7 06 May 16:50:20 16:58:35 71° 255° (WSW) 17:06:53 29.400- 29.500
MOZHAYETS 4 06 May 16:55:23 16:59:24 30° 97° (E) 17:03:24
BEESAT 06 May 17:02:42 17:05:55 18° 293° (WNW) 17:09:09 436.000
DANDE 06 May 17:09:11 17:11:12 16° 291° (WNW) 17:13:31 436.750
PCSat 06 May 17:09:47 17:13:02 16° 311° (NW) 17:16:18 145.827
BEESAT 3 06 May 17:16:09 17:19:00 19° 110° (ESE) 17:21:52 437.485
JUGNU 06 May 17:23:22 17:26:48 16° 172° (S) 17:30:16 437.505
NOAA 15 06 May 17:26:53 17:29:07 13° 62° (ENE) 17:31:20 137.62
BEESAT 2 06 May 17:31:58 17:34:31 17° 110° (ESE) 17:37:05 435.950
SO-50 06 May 17:44:19 17:46:15 12° 253° (WSW) 17:48:09 436.795
Cubesat XI-IV 06 May 17:44:20 17:46:20 12° 62° (ENE) 17:48:21 437.490
NOAA 18 06 May 17:45:10 17:48:52 19° 64° (ENE) 17:52:33 137.9125
Cosmos 2491 06 May 17:54:07 18:02:23 43° 77° (ENE) 18:10:32 435.465 / 435.565
KKS-1 06 May 17:58:35 18:02:34 32° 289° (WNW) 18:06:29 437.445
YUBILEINY 06 May 18:02:15 18:08:15 21° 81° (E) 18:14:14 435.215
STARS 06 May 18:03:25 18:07:44 56° 285° (WNW) 18:12:00 437.465
HORYU 2 06 May 18:20:42 18:24:29 27° 263° (W) 18:28:16 437.375
M-CUBED/EXP-1 PRIME 06 May 18:24:55 18:26:17 11° 60° (ENE) 18:27:39 437.505
SRMSAT 06 May 18:31:55 18:34:20 12° 167° (SSE) 18:36:46 437.500
MOZHAYETS 4 06 May 18:32:52 18:36:22 22° 291° (WNW) 18:39:52
CUTE-I 06 May 18:35:06 18:39:59 39° 71° (ENE) 18:44:54 437.470
AUBIESAT-1 06 May 18:39:01 18:41:06 13° 61° (ENE) 18:43:09 437.475
BRITE-PL 06 May 18:39:45 18:44:18 39° 71° (ENE) 18:49:11 437.365/2234.400
CUBESAT XI-V 06 May 18:51:35 18:56:15 60° 101° (E) 19:00:53 437.345
BEESAT 3 06 May 18:53:05 18:56:29 28° 305° (NW) 18:59:56 437.485
NOAA 15 06 May 19:02:58 19:08:12 72° 257° (WSW) 19:13:31 137.62
DOVE 4 06 May 19:05:28 19:08:53 18° 66° (ENE) 19:12:20 437.250
BEESAT 2 06 May 19:08:29 19:12:05 33° 304° (NW) 19:15:43 435.950
JUGNU 06 May 19:11:14 19:15:05 18° 182° (S) 19:18:58 437.505
LilacSat-2 06 May 19:16:38 19:20:30 81° 258° (WSW) 19:24:23 437.200
Cubesat XI-IV 06 May 19:20:24 19:25:43 76° 257° (WSW) 19:31:03 437.490
NOAA 18 06 May 19:23:42 19:29:03 52° 259° (W) 19:34:26 137.9125
GOMX 1 06 May 19:29:03 19:34:02 62° 75° (ENE) 19:39:20 467.674
AIST 2 06 May 19:37:47 19:41:16 27° 112° (ESE) 19:44:47 435.215
Cosmos 2491 06 May 19:51:13 19:58:58 36° 274° (W) 20:06:40 435.465 / 435.565
YUBILEINY 06 May 19:55:26 20:04:08 69° 278° (W) 20:12:50 435.215
M-CUBED/EXP-1 PRIME 06 May 19:55:31 20:00:14 75° 254° (WSW) 20:04:52 437.505
CUTE 1.7 + AOD 2 06 May 20:10:20 20:13:21 19° 70° (ENE) 20:16:23 437.475
AUBIESAT-1 06 May 20:10:29 20:15:04 62° 254° (WSW) 20:19:36 437.475
STRAND 1 06 May 20:15:57 20:20:38 35° 98° (E) 20:25:18 437.568
CUTE-I 06 May 20:16:04 20:20:06 22° 265° (W) 20:24:09 437.470
SRMSAT 06 May 20:18:49 20:22:46 18° 177° (S) 20:26:44 437.500
BRITE-PL 06 May 20:19:22 20:22:56 20° 268° (W) 20:26:41 437.365/2234.400
COMPASS 1 06 May 20:25:46 20:28:02 15° 68° (ENE) 20:30:20 437.405
HO-68 06 May 20:26:47 20:33:39 52° 69° (ENE) 20:40:31 435.675
SEEDS 06 May 20:29:20 20:32:38 23° 71° (ENE) 20:35:57 437.485
CUBESAT XI-V 06 May 20:31:12 20:33:04 12° 295° (WNW) 20:34:56 437.345
DOVE 4 06 May 20:41:06 20:46:04 50° 261° (W) 20:51:13 437.250
Cosmos 2504 06 May 20:41:16 20:48:24 62° 92° (E) 20:55:26 435.465 / 435.565
AAUSAT CUBESAT 2 06 May 20:51:08 20:54:23 23° 71° (ENE) 20:57:39 437.432
CINEMA 3 06 May 20:52:30 20:57:29 70° 76° (ENE) 21:02:28 145.822/145.860
UWE-3 06 May 20:55:50 20:58:33 16° 68° (ENE) 21:01:15 435.000/436.395/437.385
JUGNU 06 May 21:00:45 21:03:22 13° 192° (SSW) 21:05:59 437.505
GOMX 1 06 May 21:10:08 21:12:33 13° 271° (W) 21:15:02 467.674
CUBEBUG 2 06 May 21:10:56 21:15:10 34° 72° (ENE) 21:19:20 437.445
CANX-2 06 May 21:12:47 21:16:56 61° 259° (W) 21:21:06 2200.000
ZACube-1 06 May 21:16:16 21:19:11 17° 68° (ENE) 21:22:04 437.345
AIST 2 06 May 21:16:24 21:19:42 23° 307° (NW) 21:23:02 435.215
AO-85 06 May 21:24:18 21:28:46 42° 56° (NE) 21:32:51 145.980
RS-15 06 May 21:27:06 21:38:02 64° 112° (ESE) 21:49:34 29.354- 29.394
DELFI C3 06 May 21:30:54 21:31:59 11° 67° (ENE) 21:33:05 145.870
PRISM 06 May 21:31:53 21:35:51 42° 99° (E) 21:39:48 437.425
CUTE 1.7 + AOD 2 06 May 21:45:21 21:48:59 28° 263° (W) 21:52:37 437.475
Oscar 11 06 May 21:48:15 21:52:20 44° 74° (ENE) 21:56:26 145.826/435.025
STRAND 1 06 May 21:55:36 21:59:34 23° 292° (WNW) 22:03:32 437.568
COMPASS 1 06 May 21:59:26 22:03:16 37° 262° (W) 22:07:06 437.405
YUBILEINY 06 May 22:01:08 22:02:34 10° 298° (WNW) 22:04:00 435.215
SEEDS 06 May 22:04:55 22:08:14 23° 264° (W) 22:11:33 437.485
FUNcube-1 06 May 22:05:56 22:10:22 60° 76° (ENE) 22:14:43 145.935
SRMSAT 06 May 22:07:30 22:11:15 17° 187° (S) 22:14:59 437.500
HO-68 06 May 22:15:52 22:21:34 26° 264° (W) 22:27:19 435.675
AAUSAT CUBESAT 2 06 May 22:26:32 22:29:46 22° 265° (W) 22:33:01 437.432
UWE-3 06 May 22:30:13 22:34:38 43° 261° (W) 22:38:59 435.000/436.395/437.385
CINEMA 3 06 May 22:33:44 22:34:59 11° 270° (W) 22:36:14 145.822/145.860
Cosmos 2504 06 May 22:37:23 22:42:15 19° 289° (WNW) 22:47:07 435.465 / 435.565
CUBEBUG 2 06 May 22:48:18 22:51:47 20° 265° (W) 22:55:14 437.445
ZACube-1 06 May 22:50:58 22:55:10 37° 262° (W) 22:59:18 437.345
ESTCUBE 1 06 May 23:00:07 23:01:21 11° 65° (ENE) 23:02:36 437.505/2401.250
DELFI C3 06 May 23:02:39 23:06:25 45° 261° (W) 23:10:13 145.870
AO-85 06 May 23:06:08 23:08:43 15° 254° (WSW) 23:11:12 145.980
PRISM 06 May 23:08:40 23:10:46 14° 293° (WNW) 23:12:52 437.425
HUMSAT D 06 May 23:15:06 23:19:19 84° 258° (WSW) 23:23:30 437.325/437.525
UNISAT 6 06 May 23:19:34 23:23:14 27° 97° (E) 23:26:51 437.425
50 SAT 06 May 23:21:07 23:22:32 12° 68° (ENE) 23:23:57 437.505
VELOX 1 06 May 23:25:19 23:27:56 15° 66° (ENE) 23:30:32 145.980
Oscar 11 06 May 23:26:44 23:28:39 13° 267° (W) 23:30:35 145.826/435.025
TIGRISAT 06 May 23:35:14 23:39:15 39° 99° (E) 23:43:12 435.000
RS-15 06 May 23:40:53 23:51:08 37° 315° (NW) 00:01:57 29.354- 29.394
GONETS M04 06 May 23:46:53 23:53:25 24° 82° (E) 23:59:56
AIST 1 06 May 23:47:31 23:49:49 14° 86° (E) 23:52:09
AISAT 06 May 23:56:22 00:00:26 36° 72° (ENE) 00:04:32 437.250
ANTELSAT 07 May 00:01:09 00:05:27 89° 101° (E) 00:09:42 437.575/2403.000
O/OREOS (USA 219) 07 May 00:14:55 00:18:41 26° 63° (ENE) 00:22:25 437.305
PCSat 07 May 00:15:26 00:20:05 28° 55° (NE) 00:24:41 145.827
CUBEBUG 1 07 May 00:20:03 00:24:22 64° 76° (ENE) 00:28:45 437.445
DUCHIFAT 1 07 May 00:32:04 00:35:46 29° 97° (E) 00:39:25 145.980
ESTCUBE 1 07 May 00:33:11 00:37:36 60° 259° (W) 00:42:03 437.505/2401.250
Cosmos 2499 07 May 00:36:03 00:41:13 22° 84° (E) 00:46:24 435.465 / 435.565
UKube-1 07 May 00:38:33 00:42:52 78° 75° (ENE) 00:47:12 .
QB50P2 07 May 00:38:38 00:42:41 42° 99° (E) 00:46:40 145.880/145.840
DX 1 07 May 00:40:34 00:44:55 79° 257° (WSW) 00:49:19 434.975-435.025
POLYITAN 1 07 May 00:40:52 00:44:54 43° 99° (E) 00:48:53 437.675
POPSAT HIP 1 07 May 00:42:12 00:46:15 43° 99° (E) 00:50:14 437.405
CUSAT 1 07 May 00:43:25 00:45:55 12° 64° (ENE) 00:48:28 437.405
QB50P1 07 May 00:44:56 00:49:02 48° 100° (E) 00:53:05 145.935-145.965
50 SAT 07 May 00:52:38 00:55:58 34° 262° (W) 00:59:19 437.505
BUGSAT 1 07 May 00:55:03 00:58:29 25° 96° (E) 01:01:51 437.445
UNISAT 6 07 May 00:56:36 00:59:46 20° 291° (WNW) 01:02:54 437.425
VELOX 1 07 May 00:59:49 01:04:00 41° 261° (W) 01:08:13 145.980
SPROUT 07 May 00:59:55 01:04:11 67° 76° (ENE) 01:08:29 437.525
TIGRISAT 07 May 01:13:14 01:15:34 15° 293° (WNW) 01:17:53 435.000
NANOSAT C BR1 07 May 01:17:04 01:21:16 69° 284° (WNW) 01:25:25 145.865
TISAT 1 07 May 01:17:31 01:21:09 28° 71° (ENE) 01:24:49 437.305
AIST 1 07 May 01:23:02 01:27:01 36° 281° (W) 01:31:04
JAS-2 07 May 01:32:29 01:38:59 28° 93° (E) 01:45:15 435.910
AISAT 07 May 01:34:08 01:37:00 17° 266° (W) 01:39:53 437.250
GONETS M04 07 May 01:40:41 01:49:26 64° 279° (W) 01:58:12
Oscar 19 07 May 01:46:13 01:48:26 13° 92° (E) 01:50:38 437.125/150
ITUPSAT 1 07 May 01:50:22 01:52:16 12° 64° (ENE) 01:54:10 437.325
O/OREOS (USA 219) 07 May 01:54:20 01:57:57 24° 258° (WSW) 02:01:32 437.305
SWISSCUBE 07 May 01:56:07 01:59:02 16° 66° (ENE) 02:01:58 437.505
PCSat 07 May 01:58:35 02:03:28 35° 251° (WSW) 02:08:19 145.827
RS-15 07 May 02:03:01 02:08:46 14° 348° (NNW) 02:14:38 29.354- 29.394
DANDE 07 May 02:04:01 02:10:04 27° 74° (ENE) 02:16:45 436.750
DUCHIFAT 1 07 May 02:08:18 02:11:13 19° 291° (WNW) 02:14:08 145.980
QB50P2 07 May 02:15:59 02:18:04 13° 293° (WNW) 02:20:08 145.880/145.840
POLYITAN 1 07 May 02:18:17 02:20:17 13° 293° (WNW) 02:22:16 437.675
POPSAT HIP 1 07 May 02:19:37 02:21:36 13° 294° (WNW) 02:23:35 437.405
CUSAT 1 07 May 02:21:25 02:29:10 67° 80° (E) 02:37:08 437.405
QB50P1 07 May 02:22:43 02:24:20 12° 294° (WNW) 02:25:57 145.935-145.965
Cosmos 2499 07 May 02:26:56 02:33:45 51° 281° (W) 02:40:38 435.465 / 435.565
BEESAT 07 May 02:27:17 02:31:28 32° 70° (ENE) 02:35:39 436.000
BUGSAT 1 07 May 02:30:33 02:33:41 21° 291° (WNW) 02:36:48 437.445
TISAT 1 07 May 02:53:41 02:56:47 20° 265° (W) 02:59:54 437.305
BEESAT 3 07 May 03:12:51 03:16:43 54° 59° (ENE) 03:20:33 437.485
ITAMSAT 1 07 May 03:14:21 03:17:12 15° 93° (E) 03:20:02 435.822/435.867
JAS-2 07 May 03:16:33 03:24:12 56° 289° (WNW) 03:31:36 435.910
KKS-1 07 May 03:19:02 03:20:56 13° 65° (ENE) 03:22:49 437.445
Oscar 19 07 May 03:22:59 03:28:07 63° 286° (WNW) 03:33:13 437.125/150
ITUPSAT 1 07 May 03:24:51 03:29:32 61° 259° (WSW) 03:34:16 437.325
BEESAT 2 07 May 03:29:15 03:33:06 46° 58° (ENE) 03:36:56 435.950
SWISSCUBE 07 May 03:31:55 03:36:26 44° 260° (W) 03:40:59 437.505
DANDE 07 May 03:45:50 03:53:05 60° 266° (W) 04:01:17 436.750
MOZHAYETS 4 07 May 03:54:40 03:57:56 20° 68° (ENE) 04:01:14
Gurwin Techsat 1B 07 May 03:54:54 04:00:13 79° 284° (WNW) 04:05:32 435.225
CUSAT 1 07 May 04:04:50 04:10:42 24° 274° (W) 04:16:42 437.405
BEESAT 07 May 04:05:34 04:09:14 22° 264° (W) 04:12:55 436.000
RS-15 07 May 04:20:42 04:28:40 19° 26° (NNE) 04:36:41 29.354- 29.394
ITAMSAT 1 07 May 04:51:53 04:56:57 55° 287° (WNW) 05:02:00 435.822/435.867
KKS-1 07 May 04:52:37 04:56:59 53° 259° (W) 05:01:24 437.445
AO-7 07 May 04:55:45 05:03:48 50° 102° (ESE) 05:11:49 29.400- 29.500
STARS 07 May 04:56:13 05:00:39 82° 76° (ENE) 05:05:06 437.465
BEESAT 2 07 May 05:09:11 05:10:31 11° 252° (WSW) 05:11:50 435.950
ISS 07 May 05:23:03 05:25:48 25° 130° (SE) 05:28:32 145.825
MOZHAYETS 4 07 May 05:30:45 05:34:51 33° 263° (W) 05:38:59
AIST 2 07 May 05:39:45 05:43:54 84° 61° (ENE) 05:48:02 435.215
CUBESAT XI-V 07 May 05:51:37 05:55:52 38° 73° (ENE) 06:00:09 437.345
YUBILEINY 07 May 06:09:50 06:18:16 51° 79° (ENE) 06:26:39 435.215
SO-50 07 May 06:12:18 06:16:53 41° 113° (ESE) 06:21:30 436.795
HORYU 2 07 May 06:14:06 06:18:31 73° 101° (ESE) 06:22:54 437.375
RS-15 07 May 06:32:37 06:44:43 57° 54° (NE) 06:56:42 29.354- 29.394
Cosmos 2504 07 May 06:37:57 06:42:59 18° 70° (ENE) 06:48:11 435.465 / 435.565
BRITE-PL 07 May 06:48:41 06:52:41 20° 92° (E) 06:56:34 437.365/2234.400
AO-7 07 May 06:49:02 06:56:12 34° 298° (WNW) 07:03:25 29.400- 29.500
Cosmos 2491 07 May 06:50:30 06:59:00 55° 90° (E) 07:07:33 435.465 / 435.565
LilacSat-2 07 May 06:55:01 06:56:54 13° 93° (E) 06:58:45 437.200
CUTE-I 07 May 06:56:09 07:00:02 20° 95° (E) 07:03:55 437.470
ISS 07 May 06:59:24 07:02:11 26° 325° (NW) 07:05:00 145.825
NOAA 15 07 May 07:21:32 07:26:47 57° 101° (ESE) 07:31:59 137.62
STRAND 1 07 May 07:28:37 07:33:14 36° 71° (ENE) 07:37:52 437.568
CUBESAT XI-V 07 May 07:30:25 07:33:21 17° 267° (W) 07:36:19 437.345
GOMX 1 07 May 07:35:17 07:39:38 25° 94° (E) 07:43:46 467.674
Cubesat XI-IV 07 May 07:41:04 07:46:18 58° 101° (E) 07:51:33 437.490
NOAA 18 07 May 07:48:58 07:54:27 88° 104° (ESE) 07:59:55 137.9125
SO-50 07 May 07:53:39 07:57:30 23° 310° (NW) 08:01:22 436.795
YUBILEINY 07 May 08:07:24 08:14:33 30° 275° (W) 08:21:44 435.215
PHONESAT 2.4 07 May 08:10:26 08:13:25 43° 150° (SSE) 08:16:25 2401.200-2431.200
PRISM 07 May 08:18:53 08:21:49 19° 69° (ENE) 08:24:47 437.425
BRITE-PL 07 May 08:25:55 08:31:21 48° 287° (WNW) 08:36:34 437.365/2234.400
LilacSat-2 07 May 08:27:53 08:31:16 31° 287° (WNW) 08:34:37 437.200
Cosmos 2504 07 May 08:29:09 08:36:58 77° 266° (W) 08:45:22 435.465 / 435.565
CUTE-I 07 May 08:35:13 08:40:11 42° 289° (WNW) 08:45:10 437.470
DOVE 4 07 May 08:43:52 08:48:48 62° 100° (E) 08:53:24 437.250
RS-15 07 May 08:45:44 08:56:46 41° 254° (WSW) 09:07:43 29.354- 29.394
Cosmos 2491 07 May 08:48:52 08:56:10 29° 288° (WNW) 09:03:33 435.465 / 435.565
CINEMA 3 07 May 08:52:09 08:55:24 20° 94° (E) 08:58:32 145.822/145.860
CANX-2 07 May 09:01:25 09:05:04 28° 97° (E) 09:08:43 2200.000
NOAA 15 07 May 09:02:52 09:06:01 16° 296° (WNW) 09:09:10 137.62
STRAND 1 07 May 09:08:35 09:12:27 22° 265° (W) 09:16:20 437.568
GOMX 1 07 May 09:12:58 09:17:41 33° 290° (WNW) 09:22:09 467.674
M-CUBED/EXP-1 PRIME 07 May 09:13:42 09:17:19 49° 290° (WNW) 09:20:39 437.505
Cubesat XI-IV 07 May 09:22:44 09:25:51 16° 296° (WNW) 09:28:58 437.490
AUBIESAT-1 07 May 09:28:03 09:31:30 39° 292° (WNW) 09:34:44 437.475
CUTE 1.7 + AOD 2 07 May 09:32:49 09:37:00 60° 100° (E) 09:41:11 437.475
NOAA 18 07 May 09:33:10 09:34:18 11° 300° (WNW) 09:35:26 137.9125
Oscar 11 07 May 09:41:47 09:42:19 10° 91° (E) 09:42:51 145.826/435.025
HO-68 07 May 09:45:16 09:52:27 75° 104° (ESE) 09:59:36 435.675
COMPASS 1 07 May 09:45:18 09:49:15 41° 99° (E) 09:53:11 437.405
PHONESAT 2.4 07 May 09:47:18 09:50:17 40° 346° (NNW) 09:53:16 2401.200-2431.200
SEEDS 07 May 09:51:00 09:55:11 72° 100° (E) 09:59:23 437.485
PRISM 07 May 09:53:29 09:56:57 27° 263° (W) 10:00:26 437.425
FUNcube-1 07 May 09:59:11 10:01:11 13° 93° (E) 10:03:12 145.935
AAUSAT CUBESAT 2 07 May 10:11:00 10:15:09 69° 101° (ESE) 10:19:17 437.432
UNISAT 6 07 May 10:15:38 10:18:47 19° 68° (ENE) 10:21:55 437.425
